^^
Station Historical Data
Daily Summary for June 18, 2017 Units:  English    Metric   Both
« Previous Day
Next Day »
Daily Weekly Monthly Yearly Custom
  High: Low: Average:
Temperature: 87.7 °F 72.3 °F 79.2 °F
Dew Point: 73.6 °F 70.1 °F 71.5 °F
Humidity: 94 % 60 % 79 %
Wind Speed: 10.9 mph 0.0 mph 2.7 mph
Wind Gust: 19.6 mph - -
Wind:- - SSW
Pressure: 29.88 in 29.74 in -
Precipitation: 0.00 in    
Historical Graphs
 
 
Tabular Data for June 18, 2017
Time Temperature Dew Point Pressure Wind Wind Speed Wind Gust Humidity Rainfall Rate (Hourly) solar Conditions
00:00 73.0 °F 70.9 °F 29.88 in Calm   1.2 mph 93 % 0.00 in 0.0 W/m2 SCT
00:05 73.1 °F 71.0 °F 29.88 in Calm     93 % 0.00 in 0.0 W/m2 RA
00:10 73.0 °F 70.9 °F 29.88 in Calm     93 % 0.00 in 0.0 W/m2 BKN
00:15 72.9 °F 70.8 °F 29.88 in Calm     93 % 0.00 in 0.0 W/m2 BKN
00:20 72.8 °F 70.7 °F 29.88 in Calm     93 % 0.00 in 0.0 W/m2 BKN
00:25 72.8 °F 70.7 °F 29.88 in Calm     93 % 0.00 in 0.0 W/m2 BKN
00:30 72.8 °F 70.7 °F 29.88 in Calm     93 % 0.00 in 0.0 W/m2 BKN
00:35 72.7 °F 70.6 °F 29.88 in Calm     93 % 0.00 in 0.0 W/m2 BKN
00:40 72.7 °F 70.9 °F 29.88 in Calm     94 % 0.00 in 0.0 W/m2 BKN
00:45 72.6 °F 70.8 °F 29.88 in Calm     94 % 0.00 in 0.0 W/m2 BKN
00:50 72.6 °F 70.8 °F 29.88 in Calm     94 % 0.00 in 0.0 W/m2 BKN
00:55 72.6 °F 70.8 °F 29.88 in Calm     94 % 0.00 in 0.0 W/m2 BKN
01:00 72.5 °F 70.7 °F 29.88 in Calm     94 % 0.00 in 0.0 W/m2 BKN
01:05 72.5 °F 70.7 °F 29.87 in Calm     94 % 0.00 in 0.0 W/m2 BKN
01:10 72.5 °F 70.7 °F 29.87 in Calm     94 % 0.00 in 0.0 W/m2 BKN
01:15 72.4 °F 70.6 °F 29.87 in Calm     94 % 0.00 in 0.0 W/m2 BKN
01:20 72.4 °F 70.6 °F 29.87 in Calm     94 % 0.00 in 0.0 W/m2 BKN
01:25 72.4 °F 70.6 °F 29.87 in Calm   1.2 mph 94 % 0.00 in 0.0 W/m2 BKN
01:30 72.3 °F 70.5 °F 29.86 in Calm   1.2 mph 94 % 0.00 in 0.0 W/m2 BKN
01:35 72.3 °F 70.5 °F 29.87 in Calm     94 % 0.00 in 0.0 W/m2 BKN
01:40 72.4 °F 70.6 °F 29.86 in Calm     94 % 0.00 in 0.0 W/m2 BKN
01:45 72.4 °F 70.6 °F 29.86 in Calm   3.5 mph 94 % 0.00 in 0.0 W/m2 BKN
01:50 72.3 °F 70.5 °F 29.86 in Calm   3.5 mph 94 % 0.00 in 0.0 W/m2 BKN
01:55 72.4 °F 70.6 °F 29.86 in Calm     94 % 0.00 in 0.0 W/m2 BKN
02:00 72.4 °F 70.6 °F 29.86 in Calm     94 % 0.00 in 0.0 W/m2 BKN
02:05 72.5 °F 70.7 °F 29.86 in South 0.8 mph 3.5 mph 94 % 0.00 in 0.0 W/m2 OVC
02:10 72.6 °F 70.8 °F 29.85 in South 0.7 mph 3.5 mph 94 % 0.00 in 0.0 W/m2 OVC
02:15 72.6 °F 70.8 °F 29.85 in Calm   5.8 mph 94 % 0.00 in 0.0 W/m2 OVC
02:20 72.7 °F 70.9 °F 29.86 in Calm   5.8 mph 94 % 0.00 in 0.0 W/m2 OVC
02:25 72.6 °F 70.8 °F 29.85 in South 1.1 mph 4.6 mph 94 % 0.00 in 0.0 W/m2 OVC
02:30 72.7 °F 70.9 °F 29.85 in Calm   3.5 mph 94 % 0.00 in 0.0 W/m2 OVC
02:35 72.6 °F 70.8 °F 29.85 in Calm   3.5 mph 94 % 0.00 in 0.0 W/m2 OVC
02:40 72.6 °F 70.8 °F 29.85 in Calm   1.2 mph 94 % 0.00 in 0.0 W/m2 OVC
02:45 72.6 °F 70.8 °F 29.85 in Calm   1.2 mph 94 % 0.00 in 0.0 W/m2 OVC
02:50 72.6 °F 70.8 °F 29.85 in South 1.6 mph 3.5 mph 94 % 0.00 in 0.0 W/m2 OVC
02:56 72.6 °F 70.8 °F 29.85 in Calm   3.5 mph 94 % 0.00 in 0.0 W/m2 OVC
03:01 72.6 °F 70.8 °F 29.85 in SSW 3.7 mph 3.7 mph 94 % 0.00 in 0.0 W/m2 OVC
03:06 72.6 °F 70.5 °F 29.85 in SSW 2.1 mph 5.8 mph 93 % 0.00 in 0.0 W/m2 OVC
03:11 72.7 °F 70.6 °F 29.85 in SSW 3.6 mph 5.8 mph 93 % 0.00 in 0.0 W/m2 OVC
03:16 72.7 °F 70.6 °F 29.85 in South 2.8 mph 5.8 mph 93 % 0.00 in 0.0 W/m2 OVC
03:21 72.7 °F 70.6 °F 29.85 in SW 0.2 mph 5.8 mph 93 % 0.00 in 0.0 W/m2 OVC
03:26 72.7 °F 70.6 °F 29.85 in SSW 0.9 mph 4.6 mph 93 % 0.00 in 0.0 W/m2 OVC
03:31 72.8 °F 70.3 °F 29.85 in SW 1.7 mph 4.6 mph 92 % 0.00 in 0.0 W/m2 OVC
03:36 72.8 °F 70.3 °F 29.85 in Calm   4.6 mph 92 % 0.00 in 0.0 W/m2 OVC
03:41 72.8 °F 70.3 °F 29.85 in SW 2.8 mph 4.6 mph 92 % 0.00 in 0.0 W/m2 OVC
03:46 72.8 °F 70.3 °F 29.85 in Calm   3.5 mph 92 % 0.00 in 0.0 W/m2 OVC
03:51 72.9 °F 70.4 °F 29.84 in SW 2.3 mph 3.5 mph 92 % 0.00 in 0.0 W/m2 OVC
03:56 72.9 °F 70.4 °F 29.84 in Calm   3.5 mph 92 % 0.00 in 0.0 W/m2 OVC
04:01 72.9 °F 70.4 °F 29.84 in Calm   3.5 mph 92 % 0.00 in 0.0 W/m2 OVC
04:06 72.9 °F 70.1 °F 29.84 in Calm   3.5 mph 91 % 0.00 in 0.0 W/m2 OVC
04:11 72.9 °F 70.1 °F 29.84 in SW 0.7 mph 3.5 mph 91 % 0.00 in 0.0 W/m2 OVC
04:16 72.9 °F 70.1 °F 29.84 in SW 0.9 mph 3.5 mph 91 % 0.00 in 0.0 W/m2 OVC
04:21 72.9 °F 70.1 °F 29.84 in Calm   3.5 mph 91 % 0.00 in 0.0 W/m2 OVC
04:26 72.9 °F 70.1 °F 29.84 in Calm   3.5 mph 91 % 0.00 in 0.0 W/m2 OVC
04:31 72.9 °F 70.1 °F 29.84 in Calm     91 % 0.00 in 0.0 W/m2 OVC
04:36 72.9 °F 70.1 °F 29.84 in Calm     91 % 0.00 in 0.0 W/m2 OVC
04:41 72.9 °F 70.1 °F 29.84 in Calm     91 % 0.00 in 0.0 W/m2 OVC
04:46 73.1 °F 70.3 °F 29.84 in Calm     91 % 0.00 in 0.0 W/m2 OVC
04:51 73.1 °F 70.3 °F 29.84 in Calm     91 % 0.00 in 0.0 W/m2 OVC
04:57 73.1 °F 70.3 °F 29.84 in Calm     91 % 0.00 in 0.0 W/m2 OVC
05:02 73.1 °F 70.3 °F 29.84 in Calm     91 % 0.00 in 0.0 W/m2 OVC
05:07 73.1 °F 70.3 °F 29.84 in Calm     91 % 0.00 in 0.0 W/m2 OVC
05:12 73.2 °F 70.4 °F 29.85 in Calm     91 % 0.00 in 0.0 W/m2 OVC
05:17 73.2 °F 70.4 °F 29.85 in Calm     91 % 0.00 in 0.0 W/m2 OVC
05:22 73.2 °F 70.4 °F 29.85 in Calm     91 % 0.00 in 0.0 W/m2 OVC
05:27 73.0 °F 70.2 °F 29.85 in Calm     91 % 0.00 in 0.0 W/m2 OVC
05:32 72.9 °F 70.1 °F 29.85 in Calm     91 % 0.00 in 0.0 W/m2 OVC
05:37 73.0 °F 70.2 °F 29.85 in Calm     91 % 0.00 in 0.0 W/m2 OVC
05:38 73.1 °F 70.3 °F 29.85 in Calm     91 % 0.00 in 0.0 W/m2 OVC
05:43 73.0 °F 70.2 °F 29.85 in Calm     91 % 0.00 in 5.0 W/m2 OVC
05:48 73.0 °F 70.2 °F 29.86 in Calm     91 % 0.00 in 5.0 W/m2 OVC
05:53 73.0 °F 70.2 °F 29.85 in Calm     91 % 0.00 in 9.0 W/m2 OVC
05:58 73.0 °F 70.2 °F 29.86 in Calm     91 % 0.00 in 11.0 W/m2 OVC
06:03 73.1 °F 70.3 °F 29.86 in Calm     91 % 0.00 in 11.0 W/m2 OVC
06:08 73.0 °F 70.2 °F 29.86 in Calm     91 % 0.00 in 9.0 W/m2 OVC
06:13 73.0 °F 70.2 °F 29.85 in Calm     91 % 0.00 in 9.0 W/m2 OVC
06:18 72.9 °F 70.1 °F 29.86 in Calm     91 % 0.00 in 11.0 W/m2 OVC
06:23 72.9 °F 70.1 °F 29.86 in Calm     91 % 0.00 in 16.0 W/m2 OVC
06:25 72.9 °F 70.1 °F 29.86 in Calm     91 % 0.00 in 23.0 W/m2 OVC
06:30 73.0 °F 70.2 °F 29.86 in Calm     91 % 0.00 in 18.0 W/m2 OVC
06:35 73.0 °F 70.5 °F 29.86 in Calm     92 % 0.00 in 16.0 W/m2 OVC
06:36 73.0 °F 70.5 °F 29.86 in Calm     92 % 0.00 in 16.0 W/m2 OVC
06:41 73.1 °F 70.6 °F 29.86 in Calm     92 % 0.00 in 32.0 W/m2 OVC
06:46 73.2 °F 70.7 °F 29.86 in Calm     92 % 0.00 in 44.0 W/m2 OVC
06:51 73.3 °F 70.5 °F 29.86 in Calm     91 % 0.00 in 39.0 W/m2 OVC
06:56 73.4 °F 70.6 °F 29.86 in Calm     91 % 0.00 in 40.0 W/m2 OVC
07:01 73.5 °F 70.7 °F 29.86 in Calm     91 % 0.00 in 40.0 W/m2 OVC
07:06 73.6 °F 70.8 °F 29.86 in Calm     91 % 0.00 in 35.0 W/m2 OVC
07:11 73.6 °F 70.8 °F 29.86 in Calm     91 % 0.00 in 33.0 W/m2 OVC
07:16 73.6 °F 70.8 °F 29.86 in Calm     91 % 0.00 in 33.0 W/m2 OVC
07:21 73.5 °F 70.7 °F 29.87 in Calm     91 % 0.00 in 65.0 W/m2 OVC
07:26 73.6 °F 70.8 °F 29.87 in Calm     91 % 0.00 in 46.0 W/m2 OVC
07:31 73.6 °F 70.8 °F 29.87 in Calm     91 % 0.00 in 35.0 W/m2 OVC
07:36 73.7 °F 70.9 °F 29.87 in Calm     91 % 0.00 in 35.0 W/m2 OVC
07:42 73.6 °F 70.8 °F 29.87 in Calm     91 % 0.00 in 32.0 W/m2 OVC
07:47 73.7 °F 70.9 °F 29.87 in Calm     91 % 0.00 in 54.0 W/m2 OVC
07:52 73.7 °F 70.9 °F 29.87 in Calm     91 % 0.00 in 69.0 W/m2 OVC
07:57 73.8 °F 71.0 °F 29.87 in Calm     91 % 0.00 in 95.0 W/m2 OVC
08:02 73.9 °F 70.8 °F 29.87 in WSW 0.8 mph 5.8 mph 90 % 0.00 in 97.0 W/m2 OVC
08:07 74.1 °F 71.0 °F 29.87 in WSW 0.1 mph 5.8 mph 90 % 0.00 in 84.0 W/m2 OVC
08:12 74.3 °F 70.8 °F 29.87 in WSW 1.2 mph 6.9 mph 89 % 0.00 in 84.0 W/m2 OVC
08:17 74.4 °F 70.9 °F 29.87 in Calm   6.9 mph 89 % 0.00 in 76.0 W/m2 OVC
08:22 74.5 °F 71.0 °F 29.87 in Calm   4.6 mph 89 % 0.00 in 90.0 W/m2 OVC
08:27 74.6 °F 71.1 °F 29.87 in Calm   3.5 mph 89 % 0.00 in 79.0 W/m2 OVC
08:32 74.6 °F 70.8 °F 29.87 in SSW 1.7 mph 4.6 mph 88 % 0.00 in 127.0 W/m2 OVC
08:37 74.7 °F 70.9 °F 29.88 in SSW 0.1 mph 5.8 mph 88 % 0.00 in 95.0 W/m2 OVC
08:42 74.8 °F 71.0 °F 29.88 in SSW 0.2 mph 5.8 mph 88 % 0.00 in 105.0 W/m2 OVC
08:47 74.9 °F 71.1 °F 29.88 in Calm   3.5 mph 88 % 0.00 in 120.0 W/m2 OVC
08:52 75.0 °F 71.2 °F 29.88 in Calm   1.2 mph 88 % 0.00 in 113.0 W/m2 OVC
08:57 75.0 °F 70.9 °F 29.87 in SSW 1.2 mph 3.5 mph 87 % 0.00 in 105.0 W/m2 OVC
09:02 75.0 °F 70.9 °F 29.87 in SSW 3.3 mph 4.6 mph 87 % 0.00 in 146.0 W/m2 OVC
09:07 75.1 °F 71.0 °F 29.87 in SSW 3.3 mph 5.8 mph 87 % 0.00 in 178.0 W/m2 OVC
09:12 75.3 °F 71.2 °F 29.87 in SSW 0.8 mph 5.8 mph 87 % 0.00 in 188.0 W/m2 OVC
09:17 75.4 °F 70.9 °F 29.87 in SSW 1.3 mph 5.8 mph 86 % 0.00 in 244.0 W/m2 OVC
09:22 75.8 °F 71.3 °F 29.87 in SSW 2.8 mph 5.8 mph 86 % 0.00 in 353.0 W/m2 OVC
09:27 76.1 °F 71.3 °F 29.87 in SSW 3.1 mph 5.8 mph 85 % 0.00 in 225.0 W/m2 OVC
09:32 76.3 °F 71.1 °F 29.87 in SW 2.7 mph 5.8 mph 84 % 0.00 in 220.0 W/m2 OVC
09:37 76.4 °F 71.2 °F 29.86 in SSW 4.7 mph 10.4 mph 84 % 0.00 in 181.0 W/m2 OVC
09:42 76.4 °F 70.9 °F 29.87 in SSW 5.1 mph 10.4 mph 83 % 0.00 in 178.0 W/m2 OVC
09:47 76.5 °F 70.9 °F 29.86 in SSW 6.9 mph 6.9 mph 83 % 0.00 in 174.0 W/m2 OVC
09:52 76.7 °F 71.1 °F 29.86 in SSW 0.4 mph 11.5 mph 83 % 0.00 in 195.0 W/m2 OVC
09:57 76.8 °F 71.2 °F 29.86 in South 2.4 mph 11.5 mph 83 % 0.00 in 220.0 W/m2 OVC
10:02 77.2 °F 71.3 °F 29.86 in SSW 7.1 mph 7.1 mph 82 % 0.00 in 336.0 W/m2 OVC
10:07 77.8 °F 71.5 °F 29.86 in SW 5.1 mph 9.2 mph 81 % 0.00 in 294.0 W/m2 OVC
10:12 77.8 °F 71.1 °F 29.86 in SSW 3.6 mph 11.5 mph 80 % 0.00 in 343.0 W/m2 OVC
10:17 78.0 °F 71.0 °F 29.86 in South 5.1 mph 11.5 mph 79 % 0.00 in 336.0 W/m2 OVC
10:22 78.5 °F 71.4 °F 29.86 in SSW 3.7 mph 11.5 mph 79 % 0.00 in 225.0 W/m2 OVC
10:27 78.2 °F 71.5 °F 29.86 in South 6.9 mph 10.4 mph 80 % 0.00 in 304.0 W/m2 OVC
10:32 78.2 °F 71.2 °F 29.86 in SSW 5.5 mph 11.5 mph 79 % 0.00 in 223.0 W/m2 OVC
10:37 78.4 °F 71.3 °F 29.86 in South 7.8 mph 11.5 mph 79 % 0.00 in 221.0 W/m2 OVC
10:42 78.5 °F 71.4 °F 29.86 in SW 6.5 mph 13.8 mph 79 % 0.00 in 204.0 W/m2 OVC
10:47 78.6 °F 71.5 °F 29.86 in SSW 4.3 mph 13.8 mph 79 % 0.00 in 153.0 W/m2 OVC
10:52 78.4 °F 71.3 °F 29.86 in SSW 4.5 mph 12.7 mph 79 % 0.00 in 163.0 W/m2 OVC
10:57 78.5 °F 71.4 °F 29.86 in SSW 6.7 mph 10.4 mph 79 % 0.00 in 183.0 W/m2 OVC
11:02 78.7 °F 71.6 °F 29.85 in SSW 4.6 mph 10.4 mph 79 % 0.00 in 274.0 W/m2 OVC
11:07 78.8 °F 71.7 °F 29.85 in SSW 1.4 mph 10.4 mph 79 % 0.00 in 243.0 W/m2 OVC
11:12 79.0 °F 71.9 °F 29.85 in SSW 5.9 mph 9.2 mph 79 % 0.00 in 264.0 W/m2 OVC
11:17 79.2 °F 72.1 °F 29.85 in Calm   9.2 mph 79 % 0.00 in 179.0 W/m2 OVC
11:23 79.1 °F 71.6 °F 29.84 in SSW 4.7 mph 10.4 mph 78 % 0.00 in 394.0 W/m2 OVC
11:28 79.6 °F 72.1 °F 29.84 in SSW 3.5 mph 10.4 mph 78 % 0.00 in 308.0 W/m2 OVC
11:33 80.5 °F 72.6 °F 29.83 in South 0.8 mph 11.5 mph 77 % 0.00 in 879.0 W/m2 OVC
11:38 80.9 °F 71.8 °F 29.84 in SSW 4.6 mph 11.5 mph 74 % 0.00 in 202.0 W/m2 OVC
11:43 81.1 °F 71.6 °F 29.84 in SSW 6.7 mph 12.7 mph 73 % 0.00 in 972.0 W/m2 OVC
11:48 81.8 °F 72.3 °F 29.83 in WSW 3.4 mph 12.7 mph 73 % 0.00 in 297.0 W/m2 OVC
11:53 82.2 °F 72.7 °F 29.83 in South 0.2 mph 11.5 mph 73 % 0.00 in 1099.0 W/m2 OVC
11:58 82.6 °F 72.2 °F 29.83 in SSW 7.7 mph 11.5 mph 71 % 0.00 in 512.0 W/m2 OVC
12:03 82.4 °F 72.5 °F 29.83 in SW 1.8 mph 12.7 mph 72 % 0.00 in 1071.0 W/m2 BKN
12:08 82.8 °F 72.0 °F 29.83 in ESE 5.4 mph 12.7 mph 70 % 0.00 in 1155.0 W/m2 BKN
12:13 83.0 °F 72.2 °F 29.83 in SW 4.4 mph 12.7 mph 70 % 0.00 in 1076.0 W/m2 BKN
12:19 83.1 °F 71.9 °F 29.83 in SSW 1.9 mph 11.5 mph 69 % 0.00 in 288.0 W/m2 BKN
12:24 82.9 °F 72.1 °F 29.83 in SSW 6.1 mph 15.0 mph 70 % 0.00 in 353.0 W/m2 BKN
12:25 83.0 °F 72.6 °F 29.82 in SW 1.7 mph 15.0 mph 71 % 0.00 in 353.0 W/m2 BKN
12:29 83.4 °F 72.2 °F 29.82 in South 3.2 mph 15.0 mph 69 % 0.00 in 1109.0 W/m2 BKN
12:34 83.3 °F 72.1 °F 29.82 in SSW 9.5 mph 13.8 mph 69 % 0.00 in 299.0 W/m2 BKN
12:39 82.8 °F 72.0 °F 29.82 in SSW 2.3 mph 13.8 mph 70 % 0.00 in 283.0 W/m2 BKN
12:40 82.9 °F 72.1 °F 29.82 in South 1.4 mph 13.8 mph 70 % 0.00 in 283.0 W/m2 BKN
12:45 82.6 °F 72.7 °F 29.82 in South 2.9 mph 13.8 mph 72 % 0.00 in 353.0 W/m2 BKN
12:50 83.1 °F 71.9 °F 29.82 in South 4.3 mph 8.1 mph 69 % 0.00 in 246.0 W/m2 BKN
12:55 82.9 °F 72.1 °F 29.82 in SSW 1.8 mph 10.4 mph 70 % 0.00 in 192.0 W/m2 BKN
13:00 83.1 °F 72.3 °F 29.82 in SE 2.3 mph 10.4 mph 70 % 0.00 in 1130.0 W/m2 BKN
13:05 82.8 °F 72.0 °F 29.82 in SE 4.2 mph 11.5 mph 70 % 0.00 in 167.0 W/m2 BKN
13:10 82.5 °F 72.6 °F 29.81 in South 1.8 mph 11.5 mph 72 % 0.00 in 227.0 W/m2 BKN
13:15 83.0 °F 73.0 °F 29.81 in SSW 1.0 mph 11.5 mph 72 % 0.00 in 1137.0 W/m2 BKN
13:20 83.9 °F 72.6 °F 29.81 in SW 4.8 mph 11.5 mph 69 % 0.00 in 323.0 W/m2 BKN
13:25 83.5 °F 72.7 °F 29.81 in SSE 2.8 mph 11.5 mph 70 % 0.00 in 253.0 W/m2 BKN
13:30 83.0 °F 72.6 °F 29.80 in SSE 1.6 mph 11.5 mph 71 % 0.00 in 304.0 W/m2 BKN
13:35 83.6 °F 72.8 °F 29.80 in SSW 5.6 mph 11.5 mph 70 % 0.00 in 1092.0 W/m2 BKN
13:40 84.0 °F 72.3 °F 29.80 in SSW 7.2 mph 12.7 mph 68 % 0.00 in 970.0 W/m2 BKN
13:45 84.5 °F 72.8 °F 29.80 in SSW 0.6 mph 12.7 mph 68 % 0.00 in 960.0 W/m2 BKN
13:50 84.9 °F 73.6 °F 29.80 in SSW 0.4 mph 11.5 mph 69 % 0.00 in 963.0 W/m2 BKN
13:55 85.4 °F 73.2 °F 29.80 in South 3.8 mph 18.4 mph 67 % 0.00 in 1044.0 W/m2 BKN
14:00 85.7 °F 72.6 °F 29.80 in South 2.1 mph 18.4 mph 65 % 0.00 in 1028.0 W/m2 BKN
14:05 85.7 °F 72.1 °F 29.80 in South 4.7 mph 12.7 mph 64 % 0.00 in 998.0 W/m2 BKN
14:10 85.9 °F 72.3 °F 29.79 in SSW 5.6 mph 13.8 mph 64 % 0.00 in 970.0 W/m2 BKN
14:15 85.8 °F 72.2 °F 29.79 in South 4.0 mph 13.8 mph 64 % 0.00 in 977.0 W/m2 BKN
14:20 85.8 °F 72.2 °F 29.79 in SSW 3.1 mph 13.8 mph 64 % 0.00 in 939.0 W/m2 BKN
14:25 85.8 °F 71.7 °F 29.79 in South 3.6 mph 17.3 mph 63 % 0.00 in 928.0 W/m2 BKN
14:30 85.9 °F 72.3 °F 29.79 in SSW 3.1 mph 17.3 mph 64 % 0.00 in 970.0 W/m2 BKN
14:35 86.2 °F 71.2 °F 29.79 in SW 8.4 mph 11.5 mph 61 % 0.00 in 914.0 W/m2 BKN
14:40 86.2 °F 72.1 °F 29.79 in SE 4.9 mph 12.7 mph 63 % 0.00 in 257.0 W/m2 BKN
14:45 85.6 °F 71.6 °F 29.79 in South 3.5 mph 12.7 mph 63 % 0.00 in 290.0 W/m2 BKN
14:50 85.9 °F 71.4 °F 29.79 in South 7.2 mph 15.0 mph 62 % 0.00 in 888.0 W/m2 BKN
14:55 85.9 °F 71.4 °F 29.79 in SSW 3.2 mph 15.0 mph 62 % 0.00 in 879.0 W/m2 BKN
15:01 85.9 °F 71.8 °F 29.79 in SW 8.8 mph 13.8 mph 63 % 0.00 in 870.0 W/m2 BKN
15:06 86.0 °F 71.9 °F 29.78 in South 3.4 mph 13.8 mph 63 % 0.00 in 844.0 W/m2 SCT
15:11 86.3 °F 71.7 °F 29.78 in SSW 5.9 mph 12.7 mph 62 % 0.00 in 842.0 W/m2 SCT
15:16 86.4 °F 71.8 °F 29.78 in SSW 4.8 mph 12.7 mph 62 % 0.00 in 838.0 W/m2 SCT
15:21 86.6 °F 72.0 °F 29.78 in South 1.9 mph 17.3 mph 62 % 0.00 in 826.0 W/m2 SCT
15:26 87.2 °F 72.1 °F 29.78 in SE 4.4 mph 17.3 mph 61 % 0.00 in 795.0 W/m2 SCT
15:31 86.7 °F 71.6 °F 29.77 in SSW 10.9 mph 19.6 mph 61 % 0.00 in 779.0 W/m2 SCT
15:36 86.8 °F 71.7 °F 29.77 in SSW 10.5 mph 19.6 mph 61 % 0.00 in 786.0 W/m2 SCT
15:41 86.5 °F 71.5 °F 29.77 in SSW 7.2 mph 13.8 mph 61 % 0.00 in 190.0 W/m2 SCT
15:46 85.8 °F 71.3 °F 29.77 in South 2.3 mph 13.8 mph 62 % 0.00 in 802.0 W/m2 SCT
15:51 85.9 °F 71.4 °F 29.77 in SSE 1.5 mph 12.7 mph 62 % 0.00 in 789.0 W/m2 SCT
15:56 86.7 °F 71.6 °F 29.76 in SSW 3.8 mph 11.5 mph 61 % 0.00 in 740.0 W/m2 SCT
16:01 87.0 °F 71.4 °F 29.76 in South 5.1 mph 19.6 mph 60 % 0.00 in 719.0 W/m2 FEW
16:06 87.0 °F 71.9 °F 29.76 in South 9.0 mph 19.6 mph 61 % 0.00 in 740.0 W/m2 FEW
16:11 86.6 °F 71.5 °F 29.76 in SSW 6.7 mph 16.1 mph 61 % 0.00 in 230.0 W/m2 FEW
16:16 86.2 °F 71.6 °F 29.76 in SW 7.0 mph 16.1 mph 62 % 0.00 in 214.0 W/m2 FEW
16:21 86.3 °F 71.7 °F 29.76 in SSE 6.7 mph 13.8 mph 62 % 0.00 in 151.0 W/m2 FEW
16:26 86.1 °F 72.0 °F 29.76 in South 3.4 mph 12.7 mph 63 % 0.00 in 721.0 W/m2 FEW
16:31 86.3 °F 71.7 °F 29.75 in SSW 7.0 mph 13.8 mph 62 % 0.00 in 214.0 W/m2 FEW
16:36 86.4 °F 71.4 °F 29.75 in SW 10.2 mph 15.0 mph 61 % 0.00 in 642.0 W/m2 FEW
16:41 86.7 °F 72.1 °F 29.75 in SSW 5.3 mph 15.0 mph 62 % 0.00 in 664.0 W/m2 FEW
16:46 87.0 °F 71.9 °F 29.75 in SSW 9.8 mph 17.3 mph 61 % 0.00 in 617.0 W/m2 FEW
16:51 87.3 °F 72.7 °F 29.75 in SSW 7.6 mph 17.3 mph 62 % 0.00 in 594.0 W/m2 FEW
16:56 87.2 °F 72.1 °F 29.75 in South 9.8 mph 17.3 mph 61 % 0.00 in 570.0 W/m2 FEW
17:01 87.2 °F 72.6 °F 29.75 in SSE 4.3 mph 15.0 mph 62 % 0.00 in 615.0 W/m2 BKN
17:06 87.2 °F 72.6 °F 29.75 in SSW 1.9 mph 15.0 mph 62 % 0.00 in 559.0 W/m2 BKN
17:11 87.4 °F 72.8 °F 29.75 in SSW 4.8 mph 13.8 mph 62 % 0.00 in 513.0 W/m2 BKN
17:16 87.3 °F 72.2 °F 29.75 in SSW 4.9 mph 17.3 mph 61 % 0.00 in 519.0 W/m2 BKN
17:21 87.6 °F 73.0 °F 29.75 in WSW 5.1 mph 17.3 mph 62 % 0.00 in 577.0 W/m2 BKN
17:22 87.6 °F 72.5 °F 29.75 in SSW 5.9 mph 17.3 mph 61 % 0.00 in 570.0 W/m2 BKN
17:27 87.2 °F 72.6 °F 29.75 in SSW 2.3 mph 12.7 mph 62 % 0.00 in 482.0 W/m2 BKN
17:32 87.7 °F 72.6 °F 29.74 in SSW 4.4 mph 12.7 mph 61 % 0.00 in 473.0 W/m2 BKN
17:37 87.5 °F 72.9 °F 29.75 in South 4.3 mph 12.7 mph 62 % 0.00 in 443.0 W/m2 BKN
17:42 87.1 °F 72.5 °F 29.75 in SSW 3.9 mph 16.1 mph 62 % 0.00 in 450.0 W/m2 BKN
17:47 87.1 °F 72.5 °F 29.75 in SW 5.1 mph 16.1 mph 62 % 0.00 in 429.0 W/m2 BKN
17:52 87.1 °F 72.5 °F 29.75 in SSW 6.9 mph 10.4 mph 62 % 0.00 in 109.0 W/m2 BKN
17:57 86.4 °F 72.3 °F 29.75 in SSW 8.7 mph 16.1 mph 63 % 0.00 in 309.0 W/m2 BKN
18:02 85.9 °F 71.8 °F 29.75 in SSW 5.7 mph 16.1 mph 63 % 0.00 in 149.0 W/m2 SCT
18:07 86.1 °F 72.5 °F 29.75 in SSW 4.1 mph 13.8 mph 64 % 0.00 in 313.0 W/m2 SCT
18:12 85.8 °F 72.7 °F 29.75 in SSW 5.2 mph 11.5 mph 65 % 0.00 in 288.0 W/m2 SCT
18:17 85.6 °F 72.5 °F 29.75 in SW 4.7 mph 10.4 mph 65 % 0.00 in 162.0 W/m2 SCT
18:22 85.7 °F 72.6 °F 29.75 in South 3.8 mph 10.4 mph 65 % 0.00 in 246.0 W/m2 SCT
18:28 85.7 °F 72.6 °F 29.75 in SSW 5.1 mph 10.4 mph 65 % 0.00 in 355.0 W/m2 SCT
18:33 85.8 °F 73.1 °F 29.75 in SSW 4.8 mph 10.4 mph 66 % 0.00 in 302.0 W/m2 SCT
18:38 85.9 °F 72.8 °F 29.76 in SSW 7.5 mph 12.7 mph 65 % 0.00 in 262.0 W/m2 SCT
18:43 85.9 °F 72.8 °F 29.76 in South 2.3 mph 12.7 mph 65 % 0.00 in 230.0 W/m2 SCT
18:48 85.7 °F 72.1 °F 29.75 in SSW 8.7 mph 15.0 mph 64 % 0.00 in 211.0 W/m2 SCT
18:53 85.6 °F 72.9 °F 29.75 in SSW 1.9 mph 15.0 mph 66 % 0.00 in 197.0 W/m2 SCT
18:58 85.5 °F 72.4 °F 29.75 in SW 4.0 mph 15.0 mph 65 % 0.00 in 179.0 W/m2 SCT
19:03 85.4 °F 72.3 °F 29.75 in SW 6.4 mph 11.5 mph 65 % 0.00 in 162.0 W/m2 CLR
19:08 85.2 °F 72.6 °F 29.75 in South 4.2 mph 11.5 mph 66 % 0.00 in 142.0 W/m2 CLR
19:13 85.2 °F 72.6 °F 29.75 in SSW 1.2 mph 9.2 mph 66 % 0.00 in 127.0 W/m2 CLR
19:18 85.1 °F 72.5 °F 29.75 in SW 5.6 mph 11.5 mph 66 % 0.00 in 113.0 W/m2 CLR
19:23 85.0 °F 72.4 °F 29.75 in SSW 7.7 mph 16.1 mph 66 % 0.00 in 98.0 W/m2 CLR
19:28 84.8 °F 72.6 °F 29.75 in SSW 4.0 mph 16.1 mph 67 % 0.00 in 86.0 W/m2 CLR
19:33 84.6 °F 72.4 °F 29.75 in South 2.0 mph 16.1 mph 67 % 0.00 in 74.0 W/m2 CLR
19:38 84.4 °F 72.2 °F 29.75 in South 3.2 mph 11.5 mph 67 % 0.00 in 47.0 W/m2 CLR
19:43 84.2 °F 72.5 °F 29.75 in SSW 5.4 mph 12.7 mph 68 % 0.00 in 42.0 W/m2 CLR
19:48 84.0 °F 72.3 °F 29.75 in SSE 6.0 mph 12.7 mph 68 % 0.00 in 39.0 W/m2 CLR
19:53 83.9 °F 72.6 °F 29.75 in SSW 5.2 mph 12.7 mph 69 % 0.00 in 33.0 W/m2 CLR
19:58 83.7 °F 72.4 °F 29.75 in SSW 6.3 mph 12.7 mph 69 % 0.00 in 26.0 W/m2 CLR
20:03 83.5 °F 72.3 °F 29.74 in SSW 3.5 mph 13.8 mph 69 % 0.00 in 16.0 W/m2 CLR
20:08 83.3 °F 72.1 °F 29.74 in SSW 7.1 mph 13.8 mph 69 % 0.00 in 9.0 W/m2 CLR
20:13 83.2 °F 72.4 °F 29.74 in South 1.7 mph 12.7 mph 70 % 0.00 in 7.0 W/m2 CLR
20:18 83.0 °F 72.2 °F 29.74 in SSW 4.0 mph 12.7 mph 70 % 0.00 in 5.0 W/m2 CLR
20:23 82.8 °F 72.0 °F 29.74 in South 2.1 mph 11.5 mph 70 % 0.00 in 0.0 W/m2 CLR
20:28 82.7 °F 71.9 °F 29.74 in SSW 0.8 mph 10.4 mph 70 % 0.00 in 0.0 W/m2 CLR
20:33 82.6 °F 72.2 °F 29.75 in SSW 4.5 mph 8.1 mph 71 % 0.00 in 0.0 W/m2 CLR
20:38 82.4 °F 72.0 °F 29.75 in SSW 1.3 mph 9.2 mph 71 % 0.00 in 0.0 W/m2 CLR
20:43 82.3 °F 72.0 °F 29.75 in SSW 1.1 mph 9.2 mph 71 % 0.00 in 0.0 W/m2 CLR
20:48 82.1 °F 71.8 °F 29.75 in SSW 0.9 mph 8.1 mph 71 % 0.00 in 0.0 W/m2 CLR
20:53 82.0 °F 72.1 °F 29.75 in SSW 3.1 mph 10.4 mph 72 % 0.00 in 0.0 W/m2 CLR
20:58 81.8 °F 71.9 °F 29.75 in SW 3.9 mph 10.4 mph 72 % 0.00 in 0.0 W/m2 CLR
20:59 81.8 °F 71.9 °F 29.75 in ESE 5.6 mph 11.5 mph 72 % 0.00 in 0.0 W/m2 CLR
21:04 81.8 °F 71.9 °F 29.75 in SSW 4.2 mph 11.5 mph 72 % 0.00 in 0.0 W/m2 FEW
21:09 81.7 °F 71.8 °F 29.76 in South 4.0 mph 11.5 mph 72 % 0.00 in 0.0 W/m2 FEW
21:10 81.7 °F 71.8 °F 29.76 in SSW 3.0 mph 12.0 mph 72 % 0.00 in 0.0 W/m2 FEW
21:15 81.6 °F 71.7 °F 29.76 in SW 5.3 mph 11.5 mph 72 % 0.00 in 0.0 W/m2 FEW
21:20 81.6 °F 72.1 °F 29.77 in SSW 5.0 mph 9.0 mph 73 % 0.00 in 0.0 W/m2 FEW
21:25 81.5 °F 72.0 °F 29.77 in South 4.2 mph 10.4 mph 73 % 0.00 in 0.0 W/m2 FEW
21:30 81.4 °F 71.9 °F 29.77 in South 3.2 mph 10.4 mph 73 % 0.00 in 0.0 W/m2 FEW
21:35 81.4 °F 71.9 °F 29.78 in SSW 4.4 mph 6.9 mph 73 % 0.00 in 0.0 W/m2 FEW
21:40 81.3 °F 72.2 °F 29.78 in SSW 5.0 mph 12.0 mph 74 % 0.00 in 0.0 W/m2 FEW
21:45 81.3 °F 72.2 °F 29.78 in SSW 4.1 mph 11.5 mph 74 % 0.00 in 0.0 W/m2 FEW
21:50 81.2 °F 72.1 °F 29.78 in SSW 6.9 mph 11.5 mph 74 % 0.00 in 0.0 W/m2 FEW
21:55 81.2 °F 72.1 °F 29.78 in SSW 2.5 mph 15.0 mph 74 % 0.00 in 0.0 W/m2 FEW
22:00 81.0 °F 71.9 °F 29.78 in SSW 1.3 mph 15.0 mph 74 % 0.00 in 0.0 W/m2 FEW
22:05 81.0 °F 72.3 °F 29.79 in SSW 2.1 mph 11.5 mph 75 % 0.00 in 0.0 W/m2 CLR
22:10 80.9 °F 72.2 °F 29.79 in SW 0.5 mph 11.5 mph 75 % 0.00 in 0.0 W/m2 CLR
22:15 80.9 °F 72.2 °F 29.80 in SSW 3.9 mph 11.5 mph 75 % 0.00 in 0.0 W/m2 CLR
22:20 80.8 °F 72.1 °F 29.80 in Calm   9.0 mph 75 % 0.00 in 0.0 W/m2 CLR
22:25 80.7 °F 72.4 °F 29.80 in SSW 3.0 mph 8.0 mph 76 % 0.00 in 0.0 W/m2 CLR
22:30 80.7 °F 72.4 °F 29.80 in South 3.7 mph 8.1 mph 76 % 0.00 in 0.0 W/m2 CLR
22:35 80.6 °F 72.3 °F 29.80 in SSW 3.0 mph 8.0 mph 76 % 0.00 in 0.0 W/m2 CLR
22:40 80.5 °F 72.2 °F 29.80 in SSW 1.0 mph 8.0 mph 76 % 0.00 in 0.0 W/m2 CLR
22:45 80.5 °F 72.2 °F 29.79 in SW 1.1 mph 9.2 mph 76 % 0.00 in 0.0 W/m2 CLR
22:50 80.4 °F 72.5 °F 29.79 in SSW 5.0 mph 8.0 mph 77 % 0.00 in 0.0 W/m2 CLR
22:55 80.4 °F 72.5 °F 29.79 in SSW 4.8 mph 9.2 mph 77 % 0.00 in 0.0 W/m2 CLR
23:00 80.5 °F 72.6 °F 29.79 in SW 2.6 mph 11.5 mph 77 % 0.00 in 0.0 W/m2 CLR
23:05 80.5 °F 72.6 °F 29.79 in SSW 3.0 mph 13.0 mph 77 % 0.00 in 0.0 W/m2 CLR
23:10 80.5 °F 72.6 °F 29.79 in SSW 1.0 mph 12.7 mph 77 % 0.00 in 0.0 W/m2 CLR
23:15 80.4 °F 72.5 °F 29.79 in SSW 1.2 mph 11.5 mph 77 % 0.00 in 0.0 W/m2 CLR
23:20 80.4 °F 72.5 °F 29.79 in SSW 1.0 mph 10.0 mph 77 % 0.00 in 0.0 W/m2 CLR
23:25 80.3 °F 72.4 °F 29.79 in SSW 2.0 mph 10.0 mph 77 % 0.00 in 0.0 W/m2 CLR
23:30 80.3 °F 72.4 °F 29.79 in SSW 0.8 mph 10.4 mph 77 % 0.00 in 0.0 W/m2 CLR
23:35 80.2 °F 72.3 °F 29.79 in ESE 2.2 mph 10.4 mph 77 % 0.00 in 0.0 W/m2 CLR
23:40 80.1 °F 72.2 °F 29.79 in South 2.9 mph 8.1 mph 77 % 0.00 in 0.0 W/m2 CLR
23:45 80.0 °F 72.5 °F 29.79 in Calm   8.1 mph 78 % 0.00 in 0.0 W/m2 CLR
23:50 79.9 °F 72.4 °F 29.79 in SSW 0.6 mph 8.1 mph 78 % 0.00 in 0.0 W/m2 CLR
23:55 79.9 °F 72.4 °F 29.79 in South 2.5 mph 8.1 mph 78 % 0.00 in 0.0 W/m2 CLR
Air Products Campus Weather
Compliments of Weather Underground - 3.5 mb